Regional Weather Roundup
Issued by NWS

Home | Current Version | Previous Version | Graphics & Text | Print | Product List | Glossary On
Versions: 1 2 3 4 5 6 7 8 9 10 11 12 13 14 15 16 17 18 19 20 21 22 23 24 25 26 27 28 29 30 31 32 33 34 35 36 37 38 39 40 41 42 43 44 45 46 47 48 49 50
000
ASUS45 KSLC 192110
RWRUT

UTAH REGIONAL WEATHER ROUNDUP
NATIONAL WEATHER SERVICE SALT LAKE CITY UT
300 PM MDT TUE AUG 19 2014

UTZ001>011-023>025-192200-

NORTHERN UTAH

CITY           SKY/WX    TMP DP  RH WIND       PRES   REMARKS
HILL AFB       LGT RAIN  67  54  63 SE10G17   29.99S
LOGAN          SUNNY     77  51  40 S9        29.94F
OGDEN          CLOUDY    71  48  43 S17G25    29.95F
PROVO AIRPORT  CLOUDY    68  55  64 E5        30.00F
SALT LAKE CITY CLOUDY    68  56  65 SE7       29.96F
VERNAL         PTSUNNY   72  51  47 SE8       30.00F
WENDOVER       MOSUNNY   79  46  31 E7        29.91F
HEBER CITY     CLOUDY    64  52  63 CALM      30.04F
WEST JORDAN    CLOUDY    68  61  77 CALM      30.00F

$$

UTZ012>022-026-027-192200-

SOUTHERN UTAH

CITY           SKY/WX    TMP DP  RH WIND       PRES   REMARKS
BRYCE CANYON   LGT RAIN  53  50  89 N6        30.17F
CEDAR CITY     CLOUDY    63  56  78 SW6       30.03F
MILFORD        PTSUNNY   70  55  59 S16G23    29.99F
MOAB/CYNLANDS  LGT RAIN  76  53  44 CALM      29.92F
PRICE          LGT RAIN  62  55  77 NW12G22   30.04R
ST GEORGE      CLOUDY    72  63  73 N6        29.95F
KANAB          PTSUNNY   63  59  88 SE3       30.07F

$$

REGIONAL REPORTS     COLORADO/ARIZONA

CITY           SKY/WX    TMP DP  RH WIND       PRES   REMARKS
CRAIG, CO      LGT RAIN  64  55  72 N3        30.11F
GRAND JUNCTION PTSUNNY   75  51  43 NW20      29.94F
RIFLE          MOSUNNY   81  43  26 NW8       29.97F
MONTROSE       LGT RAIN  79  48  33 SE8       29.99F
CORTEZ         PTSUNNY   79  46  31 SW17      30.02F
PAGE, AZ       CLOUDY    72  59  63 NW12G20   29.98F
GRAND CANYON     N/A    N/A N/A N/A MISG      30.13F
KINGMAN        PTSUNNY   84  58  40 W8        29.91F
FLAGSTAFF      RAIN      57  55  93 SW10      30.19R FOG

$$

REGIONAL REPORTS    NEVADA/IDAHO/WYOMING

CITY           SKY/WX    TMP DP  RH WIND       PRES   REMARKS
LAS VEGAS, NV  MOSUNNY   89  59  36 E8G17     29.78F
ELY            SUNNY     73  49  42 E5        30.00F
ELKO           MOSUNNY   84  37  18 VRB3      29.85F
POCATELLO, ID  MOSUNNY   83  46  27 S16G22    29.88F
BURLEY         PTSUNNY   84  50  30 S15G23    29.82F
EVANSTON, WY   LGT RAIN  55  51  86 S5        30.14F FOG
ROCK SPRINGS   CLOUDY    62  51  67 NE6       30.09F

$$


USA.gov is the U.S. government's official web portal to all federal, state and local government web resources and services.